Location: Anywhere
(41.5000°N, 71.4000°W)
Time: 11:04:14
(UTC-04:00)

ISS - Visible Passes

Search period start: 29 September 2022 00:00
Search period end: 09 October 2022 00:00
Orbit: 414 x 417 km, 51.6° (Epoch: 29 September)

Date Brightness Start Highest point End Pass type
(mag) Time Alt. Az. Time Alt. Az. Time Alt. Az.
29 Sep -1.8 19:10:17 10° NNW 19:12:46 19° NNE 19:15:14 10° ENE visible
29 Sep -1.6 20:46:36 10° NW 20:48:12 26° NW 20:48:12 26° NW visible
30 Sep -3.2 19:57:54 10° NW 20:01:08 43° NNE 20:01:23 42° NE visible
01 Oct -2.6 19:09:13 10° NW 19:12:13 29° NNE 19:14:37 14° E visible
01 Oct -1.5 20:45:49 10° WNW 20:47:30 25° W 20:47:30 25° W visible
02 Oct -3.8 19:56:54 10° WNW 20:00:15 76° SW 20:00:48 58° SSE visible
03 Oct -3.7 19:08:03 10° NW 19:11:24 63° NNE 19:14:10 14° ESE visible
03 Oct -0.9 20:45:42 10° W 20:47:04 15° WSW 20:47:04 15° WSW visible
04 Oct -1.9 19:56:10 10° WNW 19:59:04 27° SW 20:00:33 19° S visible
05 Oct -2.8 19:07:02 10° WNW 19:10:16 47° SW 19:13:29 10° SE visible
07 Oct -0.9 19:06:30 10° W 19:08:48 17° SW 19:11:06 10° S visible
